{"data":{"norad_id":68743,"epoch":"2026-09-20T03:11:21.014304Z","epoch_age_seconds":73054,"freshness":"FRESH","line1":"1 68743U 26082R   26263.13288211  .00007130  00000+0  22299-3 0  9998","line2":"2 68743  97.2851 125.3579 0001741  90.9143 269.2299 15.33441835 24252","mean_motion":15.33441835,"eccentricity":0.0001741,"inclination_deg":97.2851,"raan_deg":125.3579,"arg_perigee_deg":90.9143,"mean_anomaly_deg":269.2299,"bstar":0.00022299,"rev_number":2425,"period_min":93.906398477775,"perigee_km":464.36110494971,"apogee_km":466.74407766541,"semimajor_km":6843.6895913076,"source":"CELESTRAK","updated_at":"2026-09-20T09:00:43.994095Z"}}